Location: Boca de Tacagua
(10.5333°N, 66.9833°W)
Time: 02:05:59
(UTC+00:00)

Cosmos 1666 Rocket - Pass Details

Date: 04 July 2022
Orbit: 602 x 633 km, 82.5° (Epoch: 17 August)

Event Time Altitude Azimuth Distance (km) Brightness Sun altitude
Exits shadow 09:04:19 13° 293° (WNW) 1,790 5.6 -15.6°
Drops below altitude 10° 09:05:34 10° 309° (NW) 1,992 5.9 -15.3°
Sets 09:08:48 0° 334° (NNW) 2,904 7.0 -14.6°
